Temperature
16 16 16 16 16 16 16 15 15 15 15 15 15 14 14 14 14 13 13 13 13 13 13 13 12 12 12 12 12 12 12 12 12 12 11 11 11 11 11 11 11 11 11
16 16 16 16 15 15 15 15 15 15 14 14 14 14 14 14 13 13 13 13 13 13 12 12 12 12 12 12 12 11 11 11 11 11 11 11 11 11 11 11 11 11 11
15 15 15 15 15 15 15 15 14 14 14 14 14 14 13 13 13 13 13 13 13 12 12 12 12 12 11 11 11 11 11 11 11 11 11 11 11 11 11 11 10 10 10
15 15 15 15 15 14 14 14 14 14 14 13 13 13 13 13 13 13 13 13 12 12 12 12 11 11 11 11 11 11 11 11 10 10 10 10 10 10 10 10 10 10 10
15 15 15 15 14 14 14 14 14 13 13 13 13 13 13 13 13 13 13 12 12 12 12 11 11 11 11 11 10 10 10 10 10 10 10 10 10 10 10 10 10 10 10
14 14 14 14 14 14 14 14 13 13 13 13 13 13 13 13 13 13 13 12 12 12 11 11 11 11 10 10 10 10 10 10 10 10 10 10 9 9 9 9 9 9 9
14 14 14 14 14 14 14 13 13 13 13 13 12 12 13 13 13 13 12 12 12 11 11 11 11 10 10 10 10 10 10 10 9 9 9 9 9 9 9 9 9 9 9
14 14 14 14 14 13 13 13 13 13 13 12 12 12 11 12 12 12 12 12 11 11 11 10 10 10 10 10 9 9 9 9 9 9 9 9 9 9 9 8 8 8 8
14 14 14 14 14 13 13 13 13 12 12 12 12 11 11 11 11 11 11 11 11 10 10 10 10 10 9 9 9 9 9 9 8 8 8 8 8 8 8 8 8 8 8
14 14 14 14 13 13 13 13 13 12 12 12 11 11 11 10 10 10 10 10 10 10 10 9 9 9 9 9 8 8 8 8 8 8 8 8 8 8 7 7 8 8 8
14 14 14 13 13 13 13 13 12 12 12 11 11 11 10 10 10 9 9 9 9 9 9 9 8 8 8 8 8 8 8 7 7 7 7 7 7 7 7 7 7 7 7
14 14 13 13 13 13 12 12 12 12 11 11 11 10 10 9 9 9 9 9 8 8 8 8 8 7 7 7 7 7 7 7 7 6 6 6 7 7 7 7 7 7 7
13 13 13 13 12 12 12 12 11 11 11 10 10 10 9 9 8 8 8 8 8 7 7 7 7 7 7 6 6 6 6 6 6 6 6 6 6 6 6 6 6 6 6
13 13 12 12 12 12 11 11 11 11 10 10 9 9 9 8 8 8 8 7 7 7 6 6 6 6 6 6 6 6 5 5 5 5 5 5 5 5 5 6 6 6 6
12 12 12 12 11 11 11 10 10 10 10 9 9 8 8 8 8 7 7 7 6 6 6 5 5 5 5 5 5 5 5 5 5 5 5 5 5 5 5 5 5 5 5
12 11 11 11 11 10 10 10 9 9 9 9 8 8 7 7 7 7 7 6 6 5 5 5 5 5 4 4 4 4 4 4 4 4 4 4 4 4 4 4 4 4 4
11 11 10 10 10 10 9 9 9 8 8 8 7 7 7 6 6 6 6 6 5 5 5 4 4 4 4 3 3 3 3 3 3 3 3 3 3 3 3 3 4 4 4
10 10 10 9 9 9 8 8 8 7 7 6 6 6 6 5 5 5 5 5 5 5 4 4 4 3 3 3 3 3 3 2 2 2 2 2 2 3 3 3 3 3 3
9 9 9 9 8 8 7 7 7 6 6 5 5 5 4 4 4 4 4 4 4 4 4 3 3 3 3 2 2 2 2 2 2 2 2 2 2 2 2 2 2 2 2
9 8 8 8 7 7 7 6 6 5 5 4 4 4 3 3 3 3 3 3 3 3 3 3 3 3 2 2 2 1 1 1 1 1 1 1 1 1 1 1 1 1 1
8 7 7 7 6 6 5 5 4 4 4 3 3 3 3 2 2 3 3 3 3 3 3 3 2 2 2 2 1 1 1 1 1 0 0 0 0 0 0 0 1 1 1
7 7 6 6 5 5 4 4 3 3 3 2 2 2 2 2 2 2 2 2 2 2 2 2 2 2 2 1 1 1 1 0 0 -0 -0 -0 -0 -0 -0 -0 -0 -0 -0
6 6 5 5 4 4 3 3 2 2 2 2 2 2 1 1 1 1 2 2 2 2 1 1 1 1 1 1 1 0 0 -0 -0 -0 -0 -1 -1 -1 -1 -1 -1 -1 -1
5 5 5 4 3 3 3 2 2 1 1 1 1 1 1 1 1 1 1 1 1 1 1 1 1 1 0 0 0 -0 -0 -1 -1 -1 -1 -1 -1 -1 -1 -1 -1 -2 -2
5 4 4 3 3 2 2 1 1 1 1 1 0 0 0 0 0 0 0 0 0 0 0 0 0 0 -0 -0 -0 -1 -1 -1 -1 -1 -1 -1 -1 -1 -2 -2 -2 -2 -2
4 3 3 3 2 2 1 1 0 0 0 -0 -0 -0 -0 -0 -0 -0 -0 -0 -0 -0 -0 -0 -0 -0 -1 -1 -1 -1 -1 -2 -2 -2 -2 -2 -2 -2 -2 -2 -2 -3 -3
Wind_Speed
8 9 9 10 10 10 9 8 8 7 7 8 9 8 8 8 8 8 9 11 12 12 10 8 7 7 7 7 7 6 5 5 5 5 5 5 5 4 4 4 3 2 2
11 9 8 8 10 11 11 10 8 6 5 5 5 6 6 6 7 7 9 10 12 12 11 10 8 7 7 7 7 6 6 6 6 6 6 6 6 7 6 5 5 4 4
13 10 7 6 8 11 10 8 6 4 3 3 3 4 4 5 6 6 7 8 9 10 11 10 8 7 6 6 6 6 6 6 6 7 8 8 8 8 9 8 7 7 6
13 10 6 5 8 8 7 4 3 2 2 2 3 3 3 4 5 6 6 6 6 6 7 8 8 6 4 5 5 6 6 6 6 6 7 7 8 9 10 10 10 9 8
12 10 6 6 8 5 4 3 2 2 2 3 3 4 3 3 4 5 4 4 5 5 5 6 6 4 3 3 5 6 7 6 6 6 7 7 7 8 9 10 10 10 10
11 10 6 6 6 3 3 3 3 2 2 3 3 3 4 4 3 3 3 3 3 3 4 3 2 1 0 2 4 6 7 7 6 6 7 8 8 9 8 9 9 9 10
10 9 5 4 4 4 4 4 3 3 3 1 1 3 3 3 2 2 1 0 0 1 3 3 4 4 4 5 5 6 7 8 7 6 7 7 8 8 9 9 9 9 10
8 7 5 4 3 3 3 3 3 2 2 2 2 1 3 3 2 3 2 1 2 4 5 6 6 6 6 5 6 7 7 8 8 8 7 7 7 8 8 9 9 9 9
8 7 6 4 3 3 3 3 3 4 3 3 3 3 3 3 2 2 3 3 3 3 4 6 7 7 6 6 6 7 8 8 8 9 8 8 8 8 8 8 7 7 7
7 7 6 5 3 3 3 3 3 3 3 3 2 3 4 3 3 2 1 3 4 5 4 5 6 7 7 7 7 7 8 8 8 9 9 8 8 8 8 7 6 5 5
4 5 6 4 3 2 3 2 2 2 3 3 3 2 3 3 4 4 3 1 2 3 4 4 5 6 7 7 7 8 8 8 9 9 9 8 8 8 7 6 5 4 4
3 4 5 4 3 2 2 2 1 2 2 3 3 3 3 3 3 3 4 3 2 1 3 3 4 5 6 7 7 8 9 9 9 9 8 9 8 8 8 7 5 5 4
3 3 3 3 2 2 2 1 1 1 1 2 2 2 2 3 2 3 3 3 2 2 2 2 2 3 5 6 7 8 8 9 10 11 11 11 11 12 11 10 7 7 6
4 4 4 4 3 3 2 2 1 0 1 1 1 1 1 1 1 1 2 2 3 2 2 3 1 2 3 4 5 7 7 8 10 11 11 12 12 12 12 12 11 10 8
5 5 4 4 4 3 3 2 1 0 1 1 0 1 1 0 0 1 1 2 3 4 3 3 2 1 2 4 5 6 7 8 9 10 11 12 12 12 12 12 12 12 11
6 6 5 4 4 3 2 2 1 1 1 1 1 1 1 0 1 1 0 1 1 2 2 2 2 1 2 4 5 6 6 7 9 9 10 10 11 11 12 12 12 12 12
6 6 5 4 4 3 2 2 2 1 2 1 1 1 1 1 1 1 1 0 0 1 2 2 2 2 2 2 4 5 6 7 7 8 8 9 10 10 11 12 12 12 12
6 5 5 5 4 3 3 3 2 2 2 2 1 2 1 1 1 1 1 1 0 1 3 3 2 2 2 2 2 3 4 5 6 7 7 8 8 9 10 10 10 11 11
5 5 5 5 4 3 3 2 2 2 2 2 2 2 2 2 1 1 1 1 1 1 2 4 3 2 2 1 2 2 3 4 5 7 7 7 7 8 9 9 9 9 9
6 5 5 4 4 3 3 3 3 3 3 3 3 3 2 2 2 2 1 1 1 2 3 4 3 3 2 2 2 2 2 2 3 6 7 6 6 7 8 8 8 8 8
6 6 5 4 4 3 3 3 3 4 4 3 3 2 2 2 3 2 2 2 3 3 3 4 3 3 2 2 2 1 1 1 2 3 3 4 5 6 7 6 6 6 6
6 6 5 5 4 3 5 6 5 4 4 4 3 2 2 2 3 4 4 4 4 4 4 4 3 3 3 3 2 2 2 1 1 2 2 2 3 2 4 5 4 5 5
5 5 5 5 4 4 6 6 7 5 4 4 4 3 2 2 3 3 5 6 5 4 5 5 5 4 5 5 5 3 2 2 2 1 1 1 2 2 4 5 3 3 4
5 5 5 5 5 5 7 7 7 4 4 4 4 4 3 3 3 4 4 4 4 3 3 3 4 4 4 5 5 4 4 2 1 1 1 0 1 2 3 6 4 3 4
5 5 5 6 5 5 8 8 7 4 3 3 3 4 4 4 5 7 5 4 3 2 4 6 7 6 7 8 8 5 3 2 1 0 2 1 1 2 2 2 4 5 5
6 6 5 5 6 5 8 10 9 4 4 3 3 3 6 7 7 7 5 5 4 2 2 3 4 5 5 4 5 5 5 3 2 1 1 1 1 1 2 2 3 5 5
Wind_Direction
183 187 196 198 203 207 214 224 233 242 251 255 252 249 252 255 254 244 241 237 232 231 235 238 243 248 252 257 261 260 258 260 255 248 247 245 235 228 226 225 219 211 199
185 187 192 198 207 212 216 220 225 230 239 242 249 250 252 261 263 255 249 244 239 239 240 242 247 252 260 266 271 268 264 262 257 252 251 249 245 238 233 230 229 227 225
186 186 187 195 206 211 214 216 223 224 229 235 254 264 268 274 270 264 256 246 244 245 243 243 247 254 265 278 281 280 275 269 263 257 255 251 246 241 238 235 233 231 229
183 178 180 193 202 201 198 193 197 203 227 244 262 275 279 280 274 269 262 249 242 239 238 238 242 252 266 284 296 296 288 281 270 267 262 262 256 247 242 240 237 233 231
183 179 184 195 195 187 188 194 193 193 224 252 264 273 278 273 271 270 264 252 239 231 231 236 235 243 260 294 307 312 309 304 290 278 270 263 262 256 250 247 243 238 235
184 180 180 188 184 174 184 190 201 206 216 236 268 282 283 278 275 265 260 257 249 233 215 200 180 169 347 344 342 336 335 328 308 297 283 272 266 262 256 253 247 241 237
181 177 173 175 175 180 192 192 186 207 226 202 253 304 307 299 297 293 287 247 124 138 119 118 118 105 76 48 27 8 355 344 331 314 300 293 283 276 264 257 250 247 243
171 172 168 171 171 179 190 191 186 195 221 185 179 239 306 328 355 6 16 62 70 82 82 84 92 93 87 68 39 22 8 354 344 333 319 310 304 297 284 271 260 254 247
162 158 162 160 158 166 183 192 188 195 219 225 196 194 219 246 297 353 25 43 52 61 69 76 77 79 78 68 48 28 14 0 349 340 332 320 311 306 300 294 283 268 255
159 158 157 157 160 168 184 198 185 200 202 227 235 225 222 202 216 264 357 39 49 50 51 65 70 69 68 61 49 34 19 6 356 345 339 329 320 314 312 310 305 289 276
152 152 153 151 158 171 185 186 187 203 205 213 217 222 234 233 222 222 234 199 68 45 46 56 64 65 60 54 44 35 27 17 3 350 345 347 343 332 325 327 327 320 306
146 140 138 137 141 151 166 184 199 214 219 223 226 219 215 221 219 215 228 206 181 118 64 52 58 59 56 50 44 37 30 25 18 9 10 13 11 5 357 350 354 358 356
160 157 137 136 133 135 138 143 171 209 228 227 235 237 236 236 227 216 221 217 186 158 136 74 50 62 60 50 44 39 29 30 32 34 35 36 37 33 29 29 34 33 34
150 144 134 129 127 122 114 111 129 157 135 197 237 222 222 259 262 235 217 201 206 184 167 156 77 65 63 59 57 49 34 39 45 44 44 44 42 38 36 40 42 41 43
139 137 132 126 117 107 103 105 116 107 122 122 155 126 146 31 3 324 273 223 212 215 201 158 160 100 80 71 67 60 45 47 51 54 53 49 46 42 41 44 44 44 48
134 134 129 123 116 109 108 115 118 113 118 109 116 111 99 71 44 24 3 274 237 216 181 141 147 139 102 88 75 65 54 51 51 55 56 52 49 45 45 46 44 45 48
134 137 138 131 126 118 116 126 135 140 136 116 97 115 109 84 73 32 37 115 232 182 168 128 108 111 93 89 72 66 58 55 46 51 55 53 52 52 51 47 46 48 47
133 136 135 131 127 124 123 135 146 143 144 146 130 120 114 99 86 54 69 92 123 126 147 147 131 119 100 120 98 74 50 50 47 50 53 55 55 54 51 48 47 48 48
132 130 130 134 134 134 131 131 135 134 134 137 138 137 129 123 107 65 73 85 80 85 106 134 134 115 98 108 90 65 51 34 46 41 43 50 54 53 50 48 48 49 48
140 137 134 137 137 135 134 133 128 123 115 105 103 113 118 137 150 140 111 104 111 105 109 118 117 108 99 89 95 91 55 24 18 21 27 41 47 47 45 46 46 47 47
145 143 138 137 135 138 151 150 143 139 132 117 98 97 112 136 148 149 145 147 136 126 122 122 123 118 121 124 138 124 112 28 9 12 4 15 27 32 26 28 35 40 42
148 147 151 152 156 167 177 175 159 147 148 148 141 119 101 86 107 104 109 121 142 145 148 142 142 153 162 158 142 132 124 110 277 339 19 354 17 12 0 2 17 34 39
155 157 162 161 166 181 187 184 176 157 160 167 164 158 144 120 92 76 82 73 70 105 147 154 159 171 168 172 154 142 145 154 205 279 27 335 356 341 339 347 2 35 32
164 168 171 170 170 193 197 191 181 155 160 172 175 174 166 155 153 136 111 83 59 50 96 120 151 161 164 160 160 157 154 132 79 14 46 128 334 321 327 340 1 24 20
170 172 172 172 178 198 203 197 177 149 165 184 189 185 180 185 186 166 142 127 95 50 87 119 131 141 148 152 146 124 125 113 121 311 18 92 332 324 322 323 349 6 8
174 171 178 184 186 200 208 205 187 164 175 186 193 202 201 198 199 183 162 158 160 166 103 95 93 90 90 119 141 146 148 142 154 221 270 96 48 19 333 311 326 348 -0
Height
1563 1564 1565 1566 1567 1568 1569 1569 1569 1570 1570 1570 1569 1569 1569 1569 1568 1568 1567 1567 1566 1565 1565 1564 1563 1561 1560 1559 1558 1557 1556 1555 1554 1553 1553 1552 1551 1551 1550 1549 1548 1548 1547
1561 1563 1564 1565 1566 1566 1567 1568 1568 1568 1568 1568 1568 1567 1567 1566 1566 1565 1565 1564 1564 1563 1562 1561 1561 1559 1558 1557 1556 1555 1554 1553 1552 1551 1551 1550 1549 1549 1548 1548 1547 1546 1546
1560 1561 1562 1563 1564 1564 1565 1565 1566 1566 1566 1566 1565 1565 1565 1564 1563 1563 1562 1561 1561 1560 1560 1559 1558 1557 1556 1555 1554 1553 1552 1551 1550 1549 1548 1548 1547 1547 1546 1546 1545 1545 1544
1558 1559 1560 1561 1562 1562 1563 1563 1563 1564 1563 1563 1563 1563 1562 1561 1561 1560 1559 1558 1557 1557 1556 1556 1555 1555 1554 1553 1551 1550 1549 1548 1547 1546 1545 1545 1544 1544 1543 1543 1543 1543 1542
1555 1557 1558 1559 1559 1560 1560 1561 1561 1561 1561 1560 1560 1559 1559 1558 1557 1556 1555 1554 1554 1553 1553 1553 1552 1552 1551 1550 1549 1548 1546 1545 1544 1543 1542 1542 1541 1541 1540 1540 1540 1540 1540
1552 1554 1555 1556 1556 1557 1557 1557 1558 1558 1557 1557 1556 1556 1555 1554 1553 1552 1551 1550 1550 1549 1549 1549 1549 1548 1548 1547 1546 1545 1543 1542 1541 1540 1539 1538 1538 1537 1537 1537 1537 1537 1537
1549 1550 1551 1552 1553 1553 1554 1554 1554 1554 1554 1554 1553 1552 1551 1550 1549 1548 1547 1547 1546 1546 1546 1546 1546 1545 1544 1544 1543 1542 1540 1539 1538 1537 1536 1535 1534 1534 1533 1533 1533 1533 1533
1545 1546 1548 1548 1549 1550 1550 1550 1550 1550 1550 1550 1550 1548 1547 1546 1544 1544 1544 1544 1544 1543 1543 1543 1542 1542 1541 1540 1539 1538 1537 1536 1535 1534 1533 1532 1531 1530 1529 1529 1529 1529 1529
1542 1543 1544 1545 1545 1546 1546 1546 1546 1546 1546 1546 1546 1546 1545 1542 1542 1541 1541 1541 1540 1540 1540 1539 1539 1538 1538 1537 1536 1535 1534 1533 1531 1531 1530 1529 1528 1526 1526 1525 1525 1525 1525
1538 1539 1540 1541 1541 1542 1542 1542 1542 1541 1541 1541 1541 1541 1541 1540 1540 1538 1538 1538 1537 1537 1536 1536 1535 1535 1534 1533 1532 1532 1530 1529 1528 1527 1526 1525 1524 1523 1522 1521 1521 1521 1521
1533 1534 1535 1536 1537 1537 1537 1537 1537 1537 1536 1536 1536 1536 1536 1536 1536 1535 1534 1534 1534 1533 1532 1532 1531 1531 1530 1530 1529 1528 1527 1526 1525 1524 1523 1521 1520 1519 1519 1518 1517 1517 1517
1529 1530 1531 1532 1532 1532 1532 1533 1532 1532 1531 1531 1531 1530 1530 1530 1530 1530 1530 1529 1529 1529 1528 1528 1527 1527 1526 1526 1525 1525 1524 1523 1521 1520 1519 1518 1517 1516 1516 1515 1514 1514 1514
1524 1526 1527 1527 1527 1527 1527 1527 1527 1527 1526 1526 1525 1525 1525 1525 1525 1525 1525 1525 1525 1524 1524 1524 1523 1523 1523 1522 1522 1521 1521 1520 1519 1518 1517 1515 1514 1513 1513 1512 1512 1511 1511
1520 1522 1522 1523 1523 1523 1523 1522 1522 1522 1521 1521 1520 1520 1519 1520 1520 1520 1520 1521 1520 1520 1520 1520 1519 1519 1519 1519 1519 1518 1517 1517 1516 1515 1514 1513 1512 1512 1511 1510 1510 1509 1509
1516 1517 1518 1518 1518 1518 1518 1518 1517 1517 1516 1515 1515 1514 1514 1514 1514 1514 1515 1515 1517 1515 1515 1515 1516 1515 1516 1516 1515 1515 1515 1514 1513 1512 1512 1511 1510 1510 1510 1509 1508 1508 1507
1511 1513 1513 1514 1513 1513 1513 1513 1512 1511 1511 1510 1510 1509 1509 1509 1509 1509 1509 1510 1511 1511 1511 1511 1511 1512 1512 1512 1512 1512 1512 1512 1511 1510 1510 1509 1508 1508 1508 1508 1507 1506 1506
1507 1508 1509 1509 1509 1508 1508 1508 1507 1506 1506 1505 1505 1504 1504 1504 1504 1504 1504 1505 1506 1506 1507 1507 1508 1508 1508 1509 1509 1509 1509 1509 1509 1508 1508 1507 1507 1506 1506 1506 1506 1505 1504
1503 1504 1504 1504 1504 1504 1504 1503 1502 1502 1501 1500 1500 1500 1500 1500 1500 1500 1500 1500 1501 1502 1503 1503 1504 1504 1505 1506 1506 1506 1507 1506 1506 1506 1506 1505 1505 1504 1504 1504 1504 1503 1503
1498 1499 1500 1500 1500 1499 1499 1498 1498 1497 1497 1496 1496 1496 1496 1496 1496 1496 1496 1497 1497 1497 1498 1499 1500 1501 1502 1502 1503 1504 1504 1504 1504 1504 1504 1503 1503 1503 1502 1502 1502 1502 1501
1494 1495 1495 1495 1495 1495 1495 1494 1494 1493 1493 1493 1493 1493 1493 1492 1492 1493 1493 1493 1494 1494 1495 1496 1497 1498 1499 1499 1500 1501 1501 1501 1501 1501 1501 1501 1501 1501 1500 1500 1500 1500 1499
1490 1491 1491 1491 1491 1491 1490 1490 1490 1489 1489 1489 1489 1489 1489 1489 1489 1490 1490 1490 1491 1491 1492 1492 1493 1494 1495 1496 1497 1498 1499 1499 1499 1499 1499 1499 1499 1499 1498 1498 1498 1498 1497
1486 1486 1487 1487 1487 1487 1487 1486 1486 1486 1486 1486 1486 1486 1486 1486 1487 1487 1487 1488 1488 1489 1489 1490 1491 1492 1493 1494 1495 1495 1496 1497 1497 1498 1497 1497 1497 1497 1496 1496 1496 1496 1495
1482 1483 1483 1483 1483 1483 1483 1483 1482 1483 1482 1483 1483 1483 1483 1484 1484 1484 1485 1485 1486 1486 1487 1488 1489 1489 1491 1491 1492 1493 1494 1494 1495 1495 1495 1495 1495 1495 1495 1494 1494 1494 1493
1479 1479 1479 1479 1480 1479 1479 1479 1479 1480 1480 1480 1480 1480 1481 1481 1482 1482 1483 1483 1483 1484 1485 1486 1487 1487 1488 1489 1490 1491 1492 1492 1492 1493 1493 1493 1493 1492 1492 1492 1492 1492 1491
1475 1475 1475 1476 1476 1476 1476 1476 1476 1476 1477 1477 1477 1478 1478 1479 1479 1480 1481 1481 1481 1482 1483 1483 1484 1485 1486 1487 1488 1489 1489 1490 1490 1490 1490 1490 1490 1490 1490 1490 1489 1489 1489
1471 1471 1472 1472 1472 1472 1473 1473 1473 1473 1474 1474 1474 1475 1476 1477 1477 1477 1478 1479 1479 1480 1481 1481 1482 1483 1484 1485 1485 1486 1487 1487 1487 1488 1488 1488 1488 1488 1487 1487 1487 1487 1487